TimeCDT,TemperatureF,Dew PointF,Humidity,Sea Level PressureIn,VisibilityMPH,Wind Direction,Wind SpeedMPH,Gust SpeedMPH,PrecipitationIn,Events,Conditions,WindDirDegrees,DateUTC
12:52 AM,70.0,66.0,87,29.86,7.0,ESE,5.8,-,N/A,,Mostly Cloudy,110,2013-10-03 05:52:00
1:52 AM,69.1,66.0,90,29.84,9.0,SE,6.9,-,N/A,,Partly Cloudy,140,2013-10-03 06:52:00
2:52 AM,69.1,64.9,87,29.83,10.0,SE,5.8,-,N/A,,Mostly Cloudy,130,2013-10-03 07:52:00
3:52 AM,71.1,66.0,84,29.83,10.0,SSE,4.6,-,N/A,,Mostly Cloudy,150,2013-10-03 08:52:00
4:52 AM,71.1,66.0,84,29.82,10.0,South,8.1,-,N/A,,Partly Cloudy,170,2013-10-03 09:52:00
5:52 AM,70.0,66.0,87,29.82,10.0,South,5.8,-,N/A,,Partly Cloudy,180,2013-10-03 10:52:00
6:52 AM,70.0,66.0,87,29.83,10.0,SSE,6.9,-,N/A,,Mostly Cloudy,160,2013-10-03 11:52:00
7:32 AM,71.1,66.0,84,29.85,9.0,SSE,6.9,-,N/A,,Overcast,150,2013-10-03 12:32:00
7:52 AM,71.1,66.0,84,29.83,9.0,SE,8.1,-,N/A,,Overcast,140,2013-10-03 12:52:00
8:04 AM,72.0,66.9,84,29.85,10.0,SSE,6.9,-,N/A,,Overcast,160,2013-10-03 13:04:00
8:52 AM,73.0,66.9,81,29.85,10.0,SSW,8.1,-,N/A,,Overcast,200,2013-10-03 13:52:00
9:27 AM,71.1,64.0,78,29.88,10.0,NNE,11.5,-,N/A,Thunderstorm,Overcast,30,2013-10-03 14:27:00
9:34 AM,70.0,62.1,76,29.89,10.0,North,12.7,21.9,N/A,Thunderstorm,Thunderstorm,360,2013-10-03 14:34:00
9:41 AM,68.0,61.0,78,29.93,9.0,NW,24.2,32.2,N/A,Thunderstorm,Thunderstorm,310,2013-10-03 14:41:00
9:52 AM,66.0,60.1,81,29.88,3.0,NNE,10.4,25.3,0.08,Rain-Thunderstorm,Light Thunderstorms and Rain,30,2013-10-03 14:52:00
10:28 AM,64.9,61.0,87,29.89,10.0,NE,10.4,-,0.09,Rain-Thunderstorm,Light Rain,50,2013-10-03 15:28:00
10:43 AM,64.9,61.0,87,29.89,10.0,East,11.5,17.3,0.09,,Overcast,80,2013-10-03 15:43:00
10:52 AM,64.9,61.0,87,29.86,10.0,ENE,12.7,20.7,0.09,,Overcast,70,2013-10-03 15:52:00
11:52 AM,66.9,62.1,84,29.85,10.0,ESE,6.9,-,N/A,,Overcast,110,2013-10-03 16:52:00
12:39 PM,70.0,64.9,84,29.85,10.0,ESE,6.9,-,N/A,,Overcast,120,2013-10-03 17:39:00
12:52 PM,71.1,64.9,81,29.82,10.0,SE,8.1,-,N/A,,Overcast,130,2013-10-03 17:52:00
1:52 PM,82.0,69.1,65,29.76,10.0,SSE,11.5,-,N/A,,Clear,160,2013-10-03 18:52:00
2:52 PM,86.0,70.0,59,29.72,10.0,South,16.1,23.0,N/A,,Partly Cloudy,170,2013-10-03 19:52:00
3:52 PM,84.9,69.1,59,29.72,10.0,South,18.4,24.2,N/A,,Mostly Cloudy,170,2013-10-03 20:52:00
4:52 PM,84.9,68.0,57,29.71,10.0,South,18.4,26.5,N/A,,Clear,180,2013-10-03 21:52:00
5:52 PM,84.9,66.9,55,29.71,10.0,South,15.0,25.3,N/A,,Clear,190,2013-10-03 22:52:00
6:52 PM,82.0,66.9,60,29.71,10.0,South,13.8,24.2,N/A,,Clear,170,2013-10-03 23:52:00
7:52 PM,80.1,68.0,67,29.72,10.0,SSE,11.5,-,N/A,,Clear,160,2013-10-04 00:52:00
8:52 PM,79.0,66.9,66,29.75,10.0,South,15.0,-,N/A,,Clear,170,2013-10-04 01:52:00
9:52 PM,78.1,66.9,68,29.77,10.0,South,16.1,-,N/A,,Clear,170,2013-10-04 02:52:00
11:52 PM,75.9,66.9,74,29.77,10.0,South,12.7,-,N/A,,Clear,170,2013-10-04 04:52:00